OTB-3-GAZELLE

Last updated on Thu Nov 21 2024 00:02:37 GMT+0000 (Coordinated Universal Time)

1 54023U 22127A 24325.56899913 .00000318 00000+0 10925-3 0 9995 2 54023 98.3549 316.5258 0014331 117.0332 243.2322 14.42317812111669
UTC large
Height (km)
Speed (km/s)
/
Latitude / Longitude
Inclination (degrees)
Orbital Period (minutes)
Azimuth
Elevation
Range (km)
Doppler Factor

Next 0 passes for location: London (51.5072 / 0.1276)

Sorry there are no passes over London.